RH
63 63 78 86 92 96 100 96 80 72 72 70 65 64 60 55 50 46 36 31 27 25 21 17 15 11 9 6 5 6 7 7 10 19 28 34 36 35 25 24 17 16 16
66 60 70 86 93 92 98 93 77 71 73 71 65 62 60 54 47 40 36 32 28 26 22 17 15 11 8 6 6 6 8 13 7 19 28 27 28 37 30 32 26 17 19
64 65 70 83 86 88 94 89 81 70 74 72 66 60 56 48 44 41 38 35 32 30 25 19 14 10 8 7 7 7 6 16 17 11 18 22 20 36 25 26 21 23 34
55 66 67 67 71 79 86 83 80 75 79 72 65 57 54 52 47 40 38 38 36 34 29 21 14 10 9 8 9 10 9 10 18 20 21 21 30 25 23 32 29 36 37
54 58 65 63 58 63 82 85 81 79 78 73 64 56 52 48 41 40 40 41 41 37 30 21 13 11 10 10 11 12 13 14 18 21 28 31 34 39 39 30 33 36 38
52 49 55 62 62 60 75 86 85 81 75 73 64 56 50 45 44 43 42 44 45 41 30 21 13 12 11 12 14 16 18 20 22 26 29 36 37 38 40 42 40 44 43
53 54 57 60 64 65 72 82 87 86 81 73 65 57 50 41 39 42 42 48 48 40 30 21 14 14 14 16 17 19 21 24 26 30 32 35 38 42 53 53 48 50 51
53 53 58 60 66 68 73 78 86 85 80 74 66 59 52 44 41 39 40 44 43 37 30 22 16 16 17 18 20 22 22 25 28 31 34 37 41 46 51 59 59 55 51
55 52 56 58 63 69 76 74 84 83 79 74 68 63 55 48 43 44 41 42 42 36 31 23 18 18 20 20 21 21 23 26 29 34 39 42 46 50 54 57 68 66 60
58 51 52 56 59 63 74 73 79 80 78 74 70 64 58 51 44 40 40 43 42 38 31 23 20 20 21 20 21 22 25 30 36 40 44 49 52 56 59 61 65 76 73
58 55 50 51 59 66 71 76 78 77 77 74 70 65 60 54 48 44 42 44 44 39 30 24 22 20 21 21 22 27 32 36 40 46 51 57 61 62 63 65 67 75 77
52 53 49 52 62 69 72 77 78 78 76 73 71 67 61 56 52 46 44 46 45 36 28 24 22 21 21 24 29 33 36 40 47 56 61 64 66 67 67 68 76 84 82
53 50 51 58 66 69 73 78 79 76 76 74 72 68 63 57 52 45 50 49 40 31 27 22 21 22 26 31 34 36 43 51 60 66 69 70 70 72 77 83 85 84 86
51 51 61 64 68 72 74 79 79 77 78 76 74 70 63 57 51 50 52 42 33 28 24 23 24 28 32 35 39 47 57 66 70 71 72 74 77 78 86 82 84 83 82
67 60 64 67 73 77 80 82 83 82 79 78 74 69 62 55 52 52 41 34 28 24 23 26 31 34 37 44 55 66 74 74 74 75 75 71 68 77 82 80 81 84 84
93 88 81 79 83 89 90 91 88 81 76 73 68 63 58 54 49 39 33 28 26 26 30 33 34 40 46 54 78 80 78 79 79 71 68 67 65 70 86 87 88 86 90
92 91 88 87 88 89 89 86 86 82 76 67 62 58 53 47 38 33 29 27 30 34 35 38 42 47 51 77 79 84 83 76 73 73 72 69 73 76 77 76 86 94 96
88 87 86 86 84 84 89 92 91 86 80 72 62 55 46 40 34 30 29 33 35 36 41 46 49 53 63 70 80 87 79 77 76 74 73 84 84 80 93 88 98 94 90
83 85 84 80 86 90 89 88 85 82 80 72 62 49 39 34 32 32 36 38 40 46 50 52 56 59 61 63 80 88 83 80 75 74 84 90 94 92 85 94 87 84 88
81 79 78 75 71 80 87 87 88 84 78 65 49 41 33 31 34 37 42 46 46 53 55 60 63 68 65 65 85 88 84 80 78 87 86 83 91 85 90 81 84 90 80
71 67 69 69 58 61 71 72 68 61 55 47 41 36 32 32 36 42 46 52 54 57 63 66 70 68 68 66 90 88 80 83 100 95 93 84 91 86 79 79 85 84 93
64 60 61 68 60 56 60 62 62 56 50 43 38 38 39 44 46 48 56 56 58 64 69 70 74 73 69 68 78 93 89 88 87 89 82 93 89 85 85 86 86 83 86
55 52 51 60 77 87 84 86 79 54 48 48 51 50 48 50 52 56 62 66 67 68 75 77 78 76 71 68 80 90 93 87 92 80 91 88 84 86 86 90 88 87 88
50 49 51 54 58 69 74 68 60 56 52 59 61 58 58 65 62 62 64 71 73 76 81 85 85 81 76 77 93 87 80 90 90 93 86 71 67 86 90 88 88 88 88
50 53 56 65 74 64 59 58 56 51 71 75 83 86 80 74 75 76 74 74 80 79 81 84 84 86 83 91 90 82 80 83 90 96 81 76 90 88 86 84 84 86 88
57 69 78 84 91 78 59 58 53 50 74 89 86 82 83 87 87 88 89 87 89 89 89 90 90 89 88 96 85 81 81 86 83 88 92 90 88 88 85 84 85 87 90
Wind_Speed
11 22 25 34 30 28 28 35 40 41 38 35 33 30 30 29 27 25 25 24 23 22 20 20 18 15 15 14 13 16 18 21 10 7 6 5 6 4 5 5 11 16 23
11 15 24 28 29 31 32 34 40 44 42 40 36 33 32 28 28 27 25 24 23 22 20 19 17 14 15 15 14 13 15 19 17 5 4 2 1 2 4 1 8 16 23
15 15 19 29 30 30 33 35 38 45 44 41 38 31 31 29 26 27 26 24 22 21 19 18 16 15 13 14 15 14 15 11 15 16 6 2 2 6 2 4 5 13 19
20 19 20 26 39 37 36 41 41 42 41 43 40 40 30 27 27 31 28 26 23 21 19 17 15 14 12 13 13 13 14 13 10 9 11 8 3 2 4 3 9 15 16
21 20 20 31 34 41 42 40 42 41 43 45 46 43 33 30 34 32 30 26 23 21 19 16 15 13 11 12 11 11 11 11 11 9 4 3 3 1 1 5 12 19 15
22 23 31 32 30 33 36 37 40 43 48 46 46 44 40 36 38 34 33 30 26 23 20 17 14 12 11 10 9 9 9 9 8 6 4 2 1 1 3 4 11 17 17
22 21 18 19 27 32 34 36 37 35 41 44 46 44 44 42 43 40 38 35 30 26 22 17 15 12 10 9 7 6 6 6 5 4 2 2 3 4 4 6 10 8 13
23 24 24 26 34 34 39 37 41 41 43 44 46 44 45 43 43 43 40 37 34 29 24 19 14 12 9 7 6 4 4 4 3 3 3 3 5 5 6 4 7 8 7
22 25 24 33 38 40 41 43 39 38 42 42 41 41 43 41 42 41 39 36 32 28 23 19 15 11 8 6 4 3 2 2 2 3 4 5 5 5 7 7 7 6 6
23 23 23 28 38 47 44 42 47 45 42 39 39 43 45 42 41 41 40 36 32 28 24 19 15 12 8 5 3 2 1 1 3 4 5 6 7 8 9 9 10 8 11
19 22 22 30 38 41 45 47 43 42 41 39 40 42 44 41 41 40 38 36 32 27 23 19 15 11 8 5 2 1 1 2 3 4 6 7 8 9 10 12 13 12 12
18 22 22 24 32 36 39 42 44 43 44 45 40 41 44 42 40 38 38 35 32 26 22 18 14 11 7 4 2 0 1 3 5 5 6 8 9 11 12 13 14 14 16
10 15 18 21 23 35 39 42 42 46 45 45 42 42 43 41 39 40 39 34 31 26 21 16 13 10 6 3 1 1 2 4 5 6 8 9 11 12 13 13 14 15 15
9 14 15 18 22 31 35 38 37 40 44 44 43 42 43 42 41 42 38 34 29 25 20 15 12 8 5 3 1 1 3 3 5 7 9 10 11 13 14 15 14 15 19
6 14 16 15 15 22 26 28 34 39 40 39 39 39 42 43 45 43 38 33 27 22 18 15 11 8 5 3 1 2 2 5 7 8 10 12 12 12 12 13 17 18 19
6 9 13 15 16 23 26 28 30 36 43 38 36 40 43 45 46 42 37 32 26 22 17 13 10 8 6 4 4 2 4 5 9 11 11 12 12 12 14 16 17 16 19
8 11 12 13 18 25 34 30 31 34 37 38 40 42 44 45 43 40 35 30 25 21 16 13 10 8 6 5 3 2 4 8 8 10 11 13 14 16 18 17 18 19 15
9 11 11 12 20 26 28 33 33 36 37 38 39 42 46 46 42 38 33 28 23 19 15 12 9 8 7 4 2 2 6 7 8 9 11 14 16 18 17 20 18 18 17
11 11 17 20 23 26 31 35 32 37 39 38 40 42 48 45 40 35 31 27 23 19 15 11 9 8 6 2 2 3 5 7 9 11 12 13 15 17 18 17 19 19 19
18 19 22 22 27 27 34 34 32 35 35 37 40 44 45 43 38 33 30 25 20 18 14 13 9 6 3 2 2 3 6 9 11 12 12 14 14 16 16 19 19 18 21
20 28 24 23 25 31 36 34 34 34 36 42 44 43 41 38 35 31 27 24 21 18 14 11 8 5 3 2 3 5 6 8 8 10 12 16 16 17 19 19 18 19 22
18 24 24 22 23 32 36 33 33 35 40 43 44 40 36 34 32 30 25 21 19 17 14 11 9 5 4 4 5 5 6 8 10 11 14 14 17 18 18 17 17 19 18
19 24 25 26 23 22 39 38 33 43 42 39 38 37 34 30 27 26 23 20 16 15 13 10 8 7 6 5 5 7 7 8 9 12 11 16 17 16 15 14 16 15 14
22 28 30 28 28 26 27 38 39 41 42 38 35 34 33 29 25 21 19 18 15 13 11 8 7 7 6 7 9 9 11 10 11 13 16 18 16 13 12 13 12 13 14
26 27 29 33 33 33 32 30 34 40 36 35 31 29 29 26 23 20 17 16 12 10 10 9 7 6 6 6 6 10 11 13 13 14 18 17 13 13 13 15 15 15 16
29 33 33 37 35 35 32 32 33 35 36 30 26 27 27 25 24 23 19 14 13 11 10 8 5 4 4 6 9 11 13 13 14 12 11 12 12 14 15 17 19 18 19
Wind_Direction
203 197 186 180 189 188 179 175 176 180 178 176 171 168 169 169 167 168 167 164 158 153 146 135 128 119 107 97 89 83 76 65 86 123 113 93 167 67 29 41 37 25 18
173 182 178 170 182 181 181 178 180 181 183 181 178 174 171 169 168 167 166 166 161 156 149 140 130 117 106 98 87 78 78 63 54 61 70 48 129 245 335 21 15 7 4
185 175 179 180 183 184 180 180 182 184 185 183 180 173 168 163 162 166 165 165 164 159 152 143 133 121 110 98 87 78 75 93 62 56 67 47 355 326 271 280 324 345 354
194 181 183 185 184 182 188 187 187 183 184 188 180 176 167 164 171 168 166 164 166 161 155 146 136 125 113 102 90 81 77 78 85 68 66 75 42 345 319 282 321 338 343
197 191 185 186 194 179 186 186 185 183 188 187 186 178 172 172 172 168 165 164 163 163 157 149 139 129 118 103 91 84 75 71 78 78 80 65 63 11 325 304 322 329 336
201 200 181 187 200 187 181 179 180 181 189 186 185 181 179 176 169 169 166 164 163 161 158 152 144 134 123 111 98 85 73 68 65 64 62 57 34 281 290 288 314 318 325
194 195 185 183 182 179 179 177 177 178 182 184 185 185 188 183 178 174 172 167 165 163 161 158 150 141 133 121 105 91 78 67 59 47 24 345 304 290 280 283 305 303 315
196 191 182 181 176 187 177 179 177 176 181 184 185 188 190 184 181 180 178 175 171 167 163 159 156 150 143 133 122 103 80 60 40 14 342 320 305 301 291 288 309 315 296
196 196 188 182 181 179 178 179 179 179 180 183 181 182 185 182 181 183 180 178 170 165 163 163 159 156 153 147 134 111 81 48 5 343 326 317 311 310 306 305 296 302 313
195 195 189 186 182 177 181 183 178 177 178 178 179 180 186 190 188 185 181 175 170 167 165 163 163 160 163 158 144 117 72 18 353 332 325 321 316 312 313 311 305 290 287
203 197 193 190 181 181 176 177 177 172 172 175 178 180 183 188 188 184 178 173 169 169 168 166 166 163 165 161 154 120 44 350 345 334 322 324 317 317 314 312 309 303 299
211 200 188 180 173 176 176 176 171 169 170 174 175 179 182 183 182 178 174 171 167 167 168 167 167 163 162 162 166 195 329 344 337 330 327 323 322 314 312 313 311 306 306
215 185 172 174 175 174 173 173 174 167 170 167 171 175 176 178 176 172 169 168 165 164 164 167 164 160 156 159 180 316 342 340 336 328 329 326 322 315 317 318 312 311 308
173 162 165 172 172 172 172 170 170 170 162 163 166 167 169 172 170 166 165 165 165 162 161 162 159 153 148 151 138 334 342 336 331 327 326 325 320 318 320 319 316 312 307
104 156 158 163 166 165 165 165 163 158 155 154 155 155 159 164 163 161 160 160 160 157 159 158 150 142 137 125 88 13 340 333 325 330 325 320 319 320 319 318 312 308 305
79 105 128 143 149 146 146 146 158 146 147 144 143 148 151 155 156 156 155 155 153 153 155 148 140 134 130 127 106 22 329 330 331 329 330 329 332 334 322 313 304 301 305
135 126 133 140 140 143 141 144 141 137 137 138 140 142 145 147 151 153 152 150 150 150 147 141 135 129 129 121 96 41 328 331 336 334 333 336 335 329 323 321 312 308 310
144 136 132 130 134 136 133 135 138 135 134 134 135 139 143 144 150 151 149 146 146 146 144 134 127 128 127 124 84 11 331 334 336 339 339 336 328 326 317 311 314 319 314
148 134 131 137 134 132 133 131 134 134 133 133 137 138 145 145 150 149 146 145 144 141 135 130 127 129 126 97 31 339 330 337 341 344 341 333 320 318 317 324 322 319 316
135 125 129 135 132 138 134 130 132 131 131 138 134 140 145 148 147 146 142 140 140 135 133 127 122 118 93 59 2 349 340 346 343 338 334 330 322 323 322 324 322 318 319
123 121 130 132 138 138 133 129 130 128 131 130 135 140 146 147 143 139 140 139 135 132 127 121 117 99 75 57 21 9 353 337 335 331 328 330 329 322 321 321 319 316 318
118 120 120 121 129 131 123 120 114 119 122 128 132 137 139 137 137 136 135 133 133 130 123 118 115 101 75 50 45 11 350 345 336 330 328 330 325 324 326 325 322 317 316
111 114 113 113 109 115 124 115 117 121 122 122 124 130 132 133 135 132 131 131 131 125 122 118 107 91 68 73 41 5 346 330 326 328 321 332 335 338 335 331 321 319 319
108 114 111 103 101 107 108 114 120 125 125 119 120 127 128 127 126 127 131 128 128 122 117 114 104 82 64 56 20 11 349 335 327 331 336 341 340 336 328 327 327 326 324
108 107 106 102 100 97 94 100 111 122 113 115 117 117 121 125 125 121 122 120 111 115 115 99 90 79 52 19 12 357 344 337 334 331 333 337 338 333 330 329 329 331 332
106 101 100 102 103 105 102 112 125 127 122 112 116 121 124 125 123 117 108 100 108 102 94 91 83 83 36 23 11 352 342 337 334 331 335 331 329 330 329 329 327 330 329